When you browse on this site, cookies collect data to enhance your experience and personalize the content and advertising you see.
Visit our Privacy Policy to learn more. By continuing to use the site, you agree to this use of cookies and data.
  • In Deutschland
  • Länderverzeichnis
  • Für 7 Tage
  • Wassertemperatur
  • Wetterkarte
  • Widgets
  • user-avatar
    Anmelden

    Stündliche Wetter Chester

    Heute, 23 September, Montag

    Zeit Temperatur Niederschläge Wind Luftdruck Luftfeuchtigkeit
    00:00 +14°C° 0 mm 2 m/S 752 mmHg 94%
    01:00 +13°C° 0 mm 2 m/S 752 mmHg 94%
    02:00 +13°C° 0 mm 2 m/S 752 mmHg 94%
    03:00 +13°C° 0 mm 2 m/S 752 mmHg 94%
    04:00 +13°C° 0 mm 2 m/S 753 mmHg 93%
    05:00 +12°C° 0 mm 2 m/S 753 mmHg 92%
    06:00 +12°C° 0 mm 2 m/S 754 mmHg 91%
    07:00 +12°C° 0 mm 3 m/S 754 mmHg 88%
    08:00 +13°C° 0 mm 3 m/S 754 mmHg 85%
    09:00 +14°C° 0 mm 3 m/S 754 mmHg 82%
    10:00 +15°C° 0 mm 4 m/S 754 mmHg 76%
    11:00 +18°C° 0 mm 4 m/S 754 mmHg 71%
    12:00 +19°C° 0 mm 5 m/S 754 mmHg 65%
    13:00 +19°C° 0 mm 5 m/S 754 mmHg 67%
    14:00 +19°C° 0 mm 6 m/S 753 mmHg 69%
    15:00 +19°C° 0 mm 6 m/S 753 mmHg 70%
    16:00 +17°C° 0.5 mm 7 m/S 752 mmHg 77%
    17:00 +15°C° 0.5 mm 7 m/S 752 mmHg 83%
    18:00 +14°C° 0.5 mm 7 m/S 752 mmHg 90%
    19:00 +15°C° 0 mm 7 m/S 752 mmHg 91%
    20:00 +15°C° 0 mm 6 m/S 752 mmHg 91%
    21:00 +15°C° 0 mm 6 m/S 752 mmHg 92%
    22:00 +15°C° 0.1 mm 5 m/S 751 mmHg 92%
    23:00 +15°C° 0.1 mm 5 m/S 751 mmHg 93%

    Morgen, 24 September, Dienstag

    Zeit Temperatur Niederschläge Wind Luftdruck Luftfeuchtigkeit
    00:00 +15°C° 0.1 mm 5 m/S 751 mmHg 94%
    01:00 +15°C° 0.3 mm 5 m/S 750 mmHg 94%
    02:00 +15°C° 0.3 mm 4 m/S 750 mmHg 95%
    03:00 +15°C° 0.3 mm 4 m/S 749 mmHg 95%
    04:00 +15°C° 0.6 mm 4 m/S 749 mmHg 95%
    05:00 +15°C° 0.6 mm 4 m/S 748 mmHg 95%
    06:00 +17°C° 0.6 mm 4 m/S 747 mmHg 95%
    07:00 +17°C° 1.1 mm 4 m/S 747 mmHg 93%
    08:00 +17°C° 1.1 mm 4 m/S 747 mmHg 92%
    09:00 +18°C° 1.1 mm 4 m/S 746 mmHg 91%
    10:00 +17°C° 3.4 mm 4 m/S 746 mmHg 92%
    11:00 +17°C° 3.4 mm 4 m/S 746 mmHg 93%
    12:00 +15°C° 3.4 mm 4 m/S 746 mmHg 94%
    13:00 +15°C° 1.6 mm 4 m/S 746 mmHg 90%
    14:00 +17°C° 1.6 mm 3 m/S 746 mmHg 86%
    15:00 +17°C° 1.6 mm 3 m/S 746 mmHg 82%
    16:00 +16°C° 0 mm 3 m/S 746 mmHg 83%
    17:00 +16°C° 0 mm 3 m/S 746 mmHg 84%
    18:00 +14°C° 0 mm 3 m/S 746 mmHg 85%
    19:00 +14°C° 0 mm 3 m/S 746 mmHg 86%
    20:00 +14°C° 0 mm 3 m/S 747 mmHg 87%
    21:00 +14°C° 0 mm 4 m/S 747 mmHg 87%
    22:00 +13°C° 0.2 mm 4 m/S 746 mmHg 89%
    23:00 +13°C° 0.2 mm 4 m/S 746 mmHg 91%

    übermorgen, 25 September, Mittwoch

    Zeit Temperatur Niederschläge Wind Luftdruck Luftfeuchtigkeit
    00:00 +13°C° 0.2 mm 5 m/S 745 mmHg 92%
    01:00 +13°C° 0.1 mm 4 m/S 745 mmHg 93%
    02:00 +13°C° 0.1 mm 3 m/S 745 mmHg 94%
    03:00 +13°C° 0.1 mm 3 m/S 745 mmHg 95%
    04:00 +14°C° 0 mm 2 m/S 745 mmHg 95%
    05:00 +14°C° 0 mm 2 m/S 745 mmHg 95%
    06:00 +14°C° 0 mm 1 m/S 745 mmHg 95%
    07:00 +15°C° 0 mm 1 m/S 746 mmHg 91%
    08:00 +16°C° 0 mm 1 m/S 746 mmHg 88%
    09:00 +16°C° 0 mm 1 m/S 747 mmHg 85%
    10:00 +18°C° 0.1 mm 1 m/S 747 mmHg 82%
    11:00 +18°C° 0.1 mm 2 m/S 748 mmHg 80%
    12:00 +19°C° 0.1 mm 2 m/S 748 mmHg 77%
    13:00 +18°C° 0.3 mm 2 m/S 748 mmHg 79%
    14:00 +18°C° 0.3 mm 3 m/S 748 mmHg 80%
    15:00 +18°C° 0.3 mm 3 m/S 748 mmHg 82%
    16:00 +17°C° 0.1 mm 3 m/S 748 mmHg 84%
    17:00 +16°C° 0.1 mm 2 m/S 748 mmHg 86%
    18:00 +15°C° 0.1 mm 2 m/S 748 mmHg 87%
    19:00 +15°C° 0.2 mm 2 m/S 748 mmHg 89%
    20:00 +14°C° 0.2 mm 3 m/S 748 mmHg 91%
    21:00 +14°C° 0.2 mm 3 m/S 748 mmHg 93%
    22:00 +14°C° 1.2 mm 4 m/S 747 mmHg 93%
    23:00 +15°C° 1.2 mm 5 m/S 747 mmHg 93%

    26 September, Donnerstag

    Zeit Temperatur Niederschläge Wind Luftdruck Luftfeuchtigkeit
    00:00 +16°C° 1.2 mm 6 m/S 746 mmHg 93%
    01:00 +15°C° 0.1 mm 5 m/S 746 mmHg 93%
    02:00 +15°C° 0.1 mm 4 m/S 746 mmHg 93%
    03:00 +16°C° 0.1 mm 3 m/S 746 mmHg 93%
    04:00 +14°C° 0.1 mm 4 m/S 746 mmHg 91%
    05:00 +14°C° 0.1 mm 5 m/S 746 mmHg 90%
    06:00 +13°C° 0.1 mm 5 m/S 746 mmHg 88%
    07:00 +14°C° 0 mm 5 m/S 747 mmHg 85%
    08:00 +14°C° 0 mm 5 m/S 747 mmHg 81%
    09:00 +14°C° 0 mm 5 m/S 748 mmHg 77%
    10:00 +15°C° 0 mm 5 m/S 748 mmHg 76%
    11:00 +15°C° 0 mm 5 m/S 748 mmHg 74%
    12:00 +15°C° 0 mm 6 m/S 748 mmHg 73%
    13:00 +16°C° 0.1 mm 6 m/S 748 mmHg 72%
    14:00 +16°C° 0.1 mm 6 m/S 748 mmHg 71%
    15:00 +17°C° 0.1 mm 7 m/S 747 mmHg 70%
    16:00 +16°C° 0.1 mm 6 m/S 748 mmHg 73%
    17:00 +15°C° 0.1 mm 6 m/S 748 mmHg 77%
    18:00 +14°C° 0.1 mm 6 m/S 748 mmHg 81%
    19:00 +13°C° 0 mm 5 m/S 748 mmHg 82%
    20:00 +13°C° 0 mm 5 m/S 749 mmHg 83%
    21:00 +12°C° 0 mm 5 m/S 749 mmHg 84%
    22:00 +12°C° 0 mm 4 m/S 749 mmHg 84%
    23:00 +12°C° 0 mm 4 m/S 749 mmHg 84%

    27 September, Freitag

    Zeit Temperatur Niederschläge Wind Luftdruck Luftfeuchtigkeit
    00:00 +12°C° 0 mm 4 m/S 749 mmHg 85%
    01:00 +12°C° 0 mm 4 m/S 749 mmHg 85%
    02:00 +12°C° 0 mm 4 m/S 749 mmHg 86%
    03:00 +12°C° 0 mm 4 m/S 748 mmHg 87%
    04:00 +12°C° 0.1 mm 4 m/S 748 mmHg 87%
    05:00 +12°C° 0.1 mm 4 m/S 748 mmHg 87%
    06:00 +11°C° 0.1 mm 4 m/S 748 mmHg 87%
    07:00 +12°C° 0 mm 5 m/S 748 mmHg 83%
    08:00 +13°C° 0 mm 6 m/S 748 mmHg 80%
    09:00 +14°C° 0 mm 6 m/S 748 mmHg 77%
    10:00 +14°C° 0.5 mm 7 m/S 747 mmHg 79%
    11:00 +14°C° 0.5 mm 7 m/S 747 mmHg 82%
    12:00 +14°C° 0.5 mm 7 m/S 747 mmHg 84%
    13:00 +14°C° 0.4 mm 7 m/S 747 mmHg 82%
    14:00 +14°C° 0.4 mm 7 m/S 746 mmHg 81%
    15:00 +14°C° 0.4 mm 7 m/S 746 mmHg 79%
    16:00 +14°C° 0.5 mm 6 m/S 746 mmHg 81%
    17:00 +13°C° 0.5 mm 5 m/S 747 mmHg 83%
    18:00 +12°C° 0.5 mm 5 m/S 747 mmHg 86%
    19:00 +12°C° 0 mm 4 m/S 747 mmHg 86%
    20:00 +11°C° 0 mm 4 m/S 748 mmHg 87%
    21:00 +11°C° 0 mm 4 m/S 748 mmHg 87%
    22:00 +10°C° 0 mm 4 m/S 748 mmHg 88%
    23:00 +9°C° 0 mm 5 m/S 748 mmHg 88%

    28 September, Samstag

    Zeit Temperatur Niederschläge Wind Luftdruck Luftfeuchtigkeit
    00:00 +9°C° 0 mm 5 m/S 749 mmHg 88%
    01:00 +9°C° 0 mm 5 m/S 749 mmHg 88%
    02:00 +9°C° 0 mm 5 m/S 749 mmHg 89%
    03:00 +9°C° 0 mm 5 m/S 749 mmHg 89%
    04:00 +9°C° 0 mm 5 m/S 749 mmHg 89%
    05:00 +9°C° 0 mm 5 m/S 749 mmHg 88%
    06:00 +8°C° 0 mm 5 m/S 750 mmHg 88%
    07:00 +10°C° 0 mm 5 m/S 750 mmHg 84%
    08:00 +12°C° 0 mm 5 m/S 750 mmHg 80%
    09:00 +13°C° 0 mm 6 m/S 750 mmHg 77%
    10:00 +14°C° 0.1 mm 6 m/S 751 mmHg 72%
    11:00 +15°C° 0.1 mm 6 m/S 751 mmHg 67%
    12:00 +15°C° 0.1 mm 6 m/S 751 mmHg 62%
    13:00 +15°C° 0 mm 5 m/S 751 mmHg 63%
    14:00 +15°C° 0 mm 5 m/S 751 mmHg 63%
    15:00 +16°C° 0 mm 5 m/S 751 mmHg 63%
    16:00 +14°C° 0 mm 4 m/S 751 mmHg 70%
    17:00 +13°C° 0 mm 4 m/S 751 mmHg 76%
    18:00 +12°C° 0 mm 3 m/S 752 mmHg 83%
    19:00 +11°C° 0 mm 3 m/S 752 mmHg 85%
    20:00 +10°C° 0 mm 2 m/S 752 mmHg 88%
    21:00 +10°C° 0 mm 2 m/S 752 mmHg 90%
    22:00 +10°C° 0 mm 2 m/S 752 mmHg 91%
    23:00 +10°C° 0 mm 2 m/S 752 mmHg 91%
    Mehr zeigen